| time (UTC) | temp F | wind direction | speed knots | gust knots | rain 1hr in | rain 24hr in | rain mn in | humidity % | barometer mb |
| 20260906004555 | 80 | 319 | 0.9 | 1.7 | 0.00 | 0.00 | 0.00 | 37 | 1023.2 |
| 20260906003515 | 80 | 49 | 0.9 | 3.5 | 0.00 | 0.00 | 0.00 | 38 | 1023.0 |
| 20260906002516 | 80 | 51 | 2.6 | 4.3 | 0.00 | 0.00 | 0.00 | 37 | 1022.8 |
| 20260906001516 | 80 | 91 | 3.5 | 7.8 | 0.00 | 0.00 | 0.00 | 37 | 1022.7 |
| 20260906000515 | 80 | 65 | 2.6 | 6.1 | 0.00 | 0.00 | 0.00 | 38 | 1022.7 |
| 20260905235517 | 80 | 61 | 3.5 | 7.8 | 0.00 | 0.00 | 0.00 | 37 | 1022.8 |
| 20260905234517 | 80 | 58 | 3.5 | 6.1 | 0.00 | 0.00 | 0.00 | 37 | 1022.7 |
| 20260905233517 | 80 | 61 | 2.6 | 5.2 | 0.00 | 0.00 | 0.00 | 37 | 1022.9 |
| 20260905232517 | 80 | 51 | 2.6 | 5.2 | 0.00 | 0.00 | 0.00 | 37 | 1022.9 |
| 20260905231515 | 81 | 84 | 1.7 | 3.5 | 0.00 | 0.00 | 0.00 | 36 | 1023.0 |
| 20260905230517 | 81 | 114 | 0.9 | 5.2 | 0.00 | 0.00 | 0.00 | 36 | 1023.0 |
| 20260905225517 | 81 | 76 | 1.7 | 4.3 | 0.00 | 0.00 | 0.00 | 37 | 1022.8 |
| 20260905224517 | 81 | 0.0 | 0.0 | 0.00 | 0.00 | 0.00 | 39 | 1022.6 | |
| 20260905223517 | 81 | 0.0 | 0.0 | 0.00 | 0.00 | 0.00 | 40 | 1022.7 | |
| 20260905222517 | 81 | 0.0 | 0.0 | 0.00 | 0.00 | 0.00 | 39 | 1022.7 | |
| 20260905221517 | 81 | 0.0 | 0.0 | 0.00 | 0.00 | 0.00 | 39 | 1022.7 | |
| 20260905220617 | 81 | 0.0 | 0.0 | 0.00 | 0.00 | 0.00 | 38 | 1022.7 | |
| 20260905215517 | 81 | 0.0 | 0.9 | 0.00 | 0.00 | 0.00 | 38 | 1022.8 | |
| 20260905214517 | 82 | 0.0 | 0.0 | 0.00 | 0.00 | 0.00 | 38 | 1022.5 | |
| 20260905213517 | 82 | 0.0 | 0.9 | 0.00 | 0.00 | 0.00 | 38 | 1022.4 | |
| 20260905212517 | 82 | 271 | 0.0 | 0.9 | 0.00 | 0.00 | 0.00 | 38 | 1022.5 |
| 20260905211517 | 82 | 0.0 | 0.0 | 0.00 | 0.00 | 0.00 | 37 | 1022.3 | |
| 20260905210515 | 83 | 0.0 | 0.0 | 0.00 | 0.00 | 0.00 | 37 | 1022.4 | |
| 20260905205517 | 83 | 262 | 0.0 | 0.9 | 0.00 | 0.00 | 0.00 | 35 | 1022.3 |
| 20260905204515 | 84 | 0.0 | 1.7 | 0.00 | 0.00 | 0.00 | 35 | 1022.2 | |
| 20260905203515 | 84 | 262 | 0.9 | 1.7 | 0.00 | 0.00 | 0.00 | 35 | 1022.2 |
| 20260905202515 | 84 | 262 | 0.9 | 1.7 | 0.00 | 0.00 | 0.00 | 35 | 1022.2 |
| 20260905201515 | 84 | 262 | 0.9 | 2.6 | 0.00 | 0.00 | 0.00 | 34 | 1022.2 |
| 20260905200515 | 84 | 270 | 0.9 | 2.6 | 0.00 | 0.00 | 0.00 | 34 | 1022.1 |
| 20260905195515 | 84 | 264 | 0.9 | 2.6 | 0.00 | 0.00 | 0.00 | 34 | 1021.9 |
| 20260905194615 | 85 | 245 | 1.7 | 3.5 | 0.00 | 0.00 | 0.00 | 33 | 1021.7 |
| 20260905193515 | 85 | 267 | 1.7 | 4.3 | 0.00 | 0.00 | 0.00 | 33 | 1021.6 |
| 20260905192515 | 85 | 258 | 1.7 | 4.3 | 0.00 | 0.00 | 0.00 | 33 | 1021.5 |
| 20260905191555 | 86 | 264 | 1.7 | 5.2 | 0.00 | 0.00 | 0.00 | 32 | 1021.4 |
| 20260905190515 | 86 | 261 | 1.7 | 4.3 | 0.00 | 0.00 | 0.00 | 31 | 1021.2 |
| 20260905185515 | 87 | 271 | 1.7 | 4.3 | 0.00 | 0.00 | 0.00 | 31 | 1021.2 |
| 20260905184515 | 87 | 267 | 1.7 | 6.1 | 0.00 | 0.00 | 0.00 | 30 | 1021.2 |
| 20260905183515 | 87 | 269 | 2.6 | 6.1 | 0.00 | 0.00 | 0.00 | 30 | 1021.2 |
| 20260905182515 | 88 | 267 | 4.3 | 7.8 | 0.00 | 0.00 | 0.00 | 29 | 1021.1 |
| 20260905181515 | 88 | 268 | 2.6 | 6.1 | 0.00 | 0.00 | 0.00 | 29 | 1021.0 |
| 20260905180515 | 89 | 266 | 2.6 | 6.1 | 0.00 | 0.00 | 0.00 | 28 | 1021.1 |
| 20260905175515 | 89 | 265 | 3.5 | 7.8 | 0.00 | 0.00 | 0.00 | 28 | 1021.1 |
| 20260905174515 | 89 | 271 | 4.3 | 7.8 | 0.00 | 0.00 | 0.00 | 27 | 1021.0 |
| 20260905173515 | 90 | 271 | 4.3 | 7.0 | 0.00 | 0.00 | 0.00 | 27 | 1020.9 |
| 20260905172515 | 90 | 269 | 3.5 | 7.0 | 0.00 | 0.00 | 0.00 | 26 | 1021.0 |
| 20260905171515 | 90 | 266 | 4.3 | 7.8 | 0.00 | 0.00 | 0.00 | 26 | 1021.1 |
| 20260905170515 | 91 | 267 | 4.3 | 7.8 | 0.00 | 0.00 | 0.00 | 26 | 1021.1 |
| 20260905165515 | 91 | 283 | 2.6 | 8.7 | 0.00 | 0.00 | 0.00 | 26 | 1021.0 |
| 20260905164515 | 91 | 273 | 4.3 | 7.8 | 0.00 | 0.00 | 0.00 | 26 | 1021.1 |
| 20260905163515 | 91 | 279 | 3.5 | 7.8 | 0.00 | 0.00 | 0.00 | 25 | 1021.0 |
| 20260905162515 | 92 | 273 | 4.3 | 8.7 | 0.00 | 0.00 | 0.00 | 25 | 1021.1 |
| 20260905161515 | 92 | 274 | 4.3 | 9.6 | 0.00 | 0.00 | 0.00 | 25 | 1021.1 |
| 20260905160555 | 92 | 276 | 4.3 | 10.4 | 0.00 | 0.00 | 0.00 | 24 | 1021.3 |
| 20260905155515 | 93 | 278 | 2.6 | 7.0 | 0.00 | 0.00 | 0.00 | 24 | 1021.2 |
| 20260905154515 | 93 | 279 | 5.2 | 10.4 | 0.00 | 0.00 | 0.00 | 23 | 1021.2 |
| 20260905153515 | 93 | 284 | 5.2 | 12.2 | 0.00 | 0.00 | 0.00 | 23 | 1021.2 |
| 20260905152555 | 94 | 282 | 5.2 | 9.6 | 0.00 | 0.00 | 0.00 | 23 | 1021.2 |
| 20260905151515 | 95 | 302 | 3.5 | 10.4 | 0.00 | 0.00 | 0.00 | 23 | 1021.2 |
| 20260905150516 | 95 | 307 | 3.5 | 7.0 | 0.00 | 0.00 | 0.00 | 22 | 1021.1 |
| 20260905145555 | 95 | 289 | 2.6 | 8.7 | 0.00 | 0.00 | 0.00 | 22 | 1021.0 |
| 20260905144515 | 96 | 333 | 4.3 | 8.7 | 0.00 | 0.00 | 0.00 | 22 | 1021.1 |
| 20260905143515 | 96 | 290 | 3.5 | 8.7 | 0.00 | 0.00 | 0.00 | 22 | 1021.1 |
| 20260905142555 | 96 | 283 | 4.3 | 9.6 | 0.00 | 0.00 | 0.00 | 22 | 1021.2 |
| 20260905141515 | 96 | 306 | 4.3 | 9.6 | 0.00 | 0.00 | 0.00 | 22 | 1021.3 |
| 20260905140515 | 95 | 301 | 5.2 | 11.3 | 0.00 | 0.00 | 0.00 | 22 | 1021.4 |
| 20260905135515 | 95 | 307 | 4.3 | 10.4 | 0.00 | 0.00 | 0.00 | 22 | 1021.5 |
| 20260905134515 | 96 | 286 | 6.1 | 13.0 | 0.00 | 0.00 | 0.00 | 21 | 1021.6 |
| 20260905133515 | 96 | 283 | 7.0 | 12.2 | 0.00 | 0.00 | 0.00 | 21 | 1021.7 |
| 20260905132515 | 96 | 292 | 6.1 | 13.0 | 0.00 | 0.00 | 0.00 | 21 | 1021.7 |
| 20260905131515 | 95 | 287 | 4.3 | 12.2 | 0.00 | 0.00 | 0.00 | 25 | 1022.0 |
| 20260905130515 | 96 | 306 | 4.3 | 9.6 | 0.00 | 0.00 | 0.00 | 24 | 1022.0 |
| 20260905125555 | 96 | 289 | 4.3 | 9.6 | 0.00 | 0.00 | 0.00 | 24 | 1022.0 |
| 20260905124515 | 96 | 271 | 4.3 | 8.7 | 0.00 | 0.00 | 0.00 | 23 | 1022.1 |
| 20260905123515 | 97 | 270 | 4.3 | 9.6 | 0.00 | 0.00 | 0.00 | 21 | 1022.2 |
| 20260905122515 | 97 | 270 | 5.2 | 8.7 | 0.00 | 0.00 | 0.00 | 21 | 1022.3 |
| 20260905121515 | 96 | 266 | 2.6 | 6.1 | 0.00 | 0.00 | 0.00 | 25 | 1022.3 |
| 20260905120515 | 96 | 270 | 3.5 | 7.0 | 0.00 | 0.00 | 0.00 | 25 | 1022.5 |
| 20260905115516 | 96 | 269 | 4.3 | 8.7 | 0.00 | 0.00 | 0.00 | 25 | 1022.5 |
| 20260905114515 | 95 | 278 | 1.7 | 3.5 | 0.00 | 0.00 | 0.00 | 27 | 1022.7 |
| 20260905113515 | 94 | 283 | 0.9 | 3.5 | 0.00 | 0.00 | 0.00 | 28 | 1022.7 |
| 20260905112555 | 94 | 276 | 1.7 | 4.3 | 0.00 | 0.00 | 0.00 | 28 | 1022.8 |
| 20260905111515 | 94 | 269 | 2.6 | 5.2 | 0.00 | 0.00 | 0.00 | 27 | 1022.9 |
| 20260905110515 | 94 | 276 | 0.0 | 3.5 | 0.00 | 0.00 | 0.00 | 27 | 1022.9 |
| 20260905105515 | 93 | 273 | 0.9 | 2.6 | 0.00 | 0.00 | 0.00 | 28 | 1023.0 |
| 20260905104615 | 93 | 276 | 0.9 | 3.5 | 0.00 | 0.00 | 0.00 | 29 | 1023.1 |
| 20260905103555 | 91 | 276 | 0.0 | 1.7 | 0.00 | 0.00 | 0.00 | 30 | 1023.0 |
| 20260905102516 | 91 | 278 | 1.7 | 4.3 | 0.00 | 0.00 | 0.00 | 30 | 1023.1 |
| 20260905101555 | 90 | 334 | 0.9 | 2.6 | 0.00 | 0.00 | 0.00 | 31 | 1023.3 |
| 20260905100515 | 89 | 306 | 0.9 | 1.7 | 0.00 | 0.00 | 0.00 | 32 | 1023.3 |
| 20260905095555 | 89 | 274 | 0.9 | 2.6 | 0.00 | 0.00 | 0.00 | 31 | 1023.3 |
| 20260905094515 | 88 | 181 | 0.9 | 2.6 | 0.00 | 0.00 | 0.00 | 32 | 1023.3 |
| 20260905093555 | 87 | 30 | 0.9 | 2.6 | 0.00 | 0.00 | 0.00 | 33 | 1023.2 |
| 20260905092515 | 86 | 43 | 0.9 | 3.5 | 0.00 | 0.00 | 0.00 | 33 | 1023.0 |
| 20260905091515 | 84 | 40 | 1.7 | 4.3 | 0.00 | 0.00 | 0.00 | 34 | 1022.8 |
| 20260905090555 | 83 | 47 | 3.5 | 7.0 | 0.00 | 0.00 | 0.00 | 34 | 1022.6 |
| 20260905085515 | 82 | 56 | 2.6 | 6.1 | 0.00 | 0.00 | 0.00 | 34 | 1022.4 |
| 20260905084515 | 82 | 54 | 2.6 | 5.2 | 0.00 | 0.00 | 0.00 | 34 | 1022.4 |
| 20260905083515 | 82 | 49 | 2.6 | 6.1 | 0.00 | 0.00 | 0.00 | 35 | 1022.4 |
| 20260905082515 | 82 | 66 | 2.6 | 4.3 | 0.00 | 0.00 | 0.00 | 35 | 1022.5 |
| 20260905081516 | 81 | 56 | 2.6 | 5.2 | 0.00 | 0.00 | 0.00 | 35 | 1022.5 |
| 20260905080516 | 81 | 57 | 0.9 | 3.5 | 0.00 | 0.00 | 0.00 | 37 | 1022.5 |
| 20260905075515 | 80 | 56 | 0.9 | 1.7 | 0.00 | 0.00 | 0.00 | 37 | 1022.5 |
| 20260905074516 | 79 | 0.0 | 0.9 | 0.00 | 0.00 | 0.00 | 38 | 1022.6 | |
| 20260905073516 | 78 | 46 | 0.9 | 4.3 | 0.00 | 0.00 | 0.00 | 38 | 1022.3 |
| 20260905072555 | 77 | 49 | 1.7 | 4.3 | 0.00 | 0.00 | 0.00 | 38 | 1022.2 |
| 20260905071515 | 77 | 47 | 3.5 | 5.2 | 0.00 | 0.00 | 0.00 | 39 | 1022.2 |
| 20260905070516 | 77 | 46 | 3.5 | 5.2 | 0.00 | 0.00 | 0.00 | 38 | 1022.1 |
| 20260905065515 | 77 | 39 | 1.7 | 5.2 | 0.00 | 0.00 | 0.00 | 38 | 1022.1 |
| 20260905064516 | 77 | 62 | 2.6 | 5.2 | 0.00 | 0.00 | 0.00 | 37 | 1022.2 |
| 20260905063516 | 77 | 50 | 3.5 | 5.2 | 0.00 | 0.00 | 0.00 | 37 | 1022.0 |
| 20260905062515 | 76 | 69 | 1.7 | 4.3 | 0.00 | 0.00 | 0.00 | 37 | 1021.8 |
| 20260905061555 | 77 | 53 | 1.7 | 3.5 | 0.00 | 0.00 | 0.00 | 37 | 1022.0 |
| 20260905060516 | 77 | 76 | 1.7 | 2.6 | 0.00 | 0.00 | 0.00 | 37 | 1022.0 |
| 20260905055515 | 77 | 72 | 1.7 | 3.5 | 0.00 | 0.00 | 0.00 | 37 | 1021.9 |
| 20260905054515 | 77 | 58 | 0.9 | 1.7 | 0.00 | 0.00 | 0.00 | 39 | 1022.0 |
| 20260905053516 | 78 | 58 | 0.9 | 1.7 | 0.00 | 0.00 | 0.00 | 38 | 1022.2 |
| 20260905052556 | 78 | 58 | 0.9 | 1.7 | 0.00 | 0.00 | 0.00 | 38 | 1022.2 |
| 20260905051515 | 77 | 53 | 0.9 | 2.6 | 0.00 | 0.00 | 0.00 | 40 | 1021.9 |
| 20260905050515 | 78 | 0.0 | 0.0 | 0.00 | 0.00 | 0.00 | 40 | 1021.8 | |
| 20260905045515 | 78 | 0.0 | 0.0 | 0.00 | 0.00 | 0.00 | 39 | 1021.8 | |
| 20260905044516 | 79 | 0.0 | 0.0 | 0.00 | 0.00 | 0.00 | 37 | 1021.7 | |
| 20260905043516 | 80 | 53 | 0.0 | 1.7 | 0.00 | 0.00 | 0.00 | 36 | 1021.7 |
| 20260905042516 | 80 | 0.0 | 0.0 | 0.00 | 0.00 | 0.00 | 36 | 1021.7 | |
| 20260905041515 | 80 | 53 | 0.9 | 1.7 | 0.00 | 0.00 | 0.00 | 35 | 1021.7 |
| 20260905035516 | 81 | 72 | 2.6 | 5.2 | 0.00 | 0.00 | 0.00 | 35 | 1021.5 |
| 20260905034516 | 80 | 79 | 1.7 | 2.6 | 0.00 | 0.00 | 0.00 | 36 | 1021.6 |
| 20260905033555 | 80 | 79 | 0.9 | 1.7 | 0.00 | 0.00 | 0.00 | 35 | 1021.6 |
| 20260905032515 | 80 | 0.0 | 1.7 | 0.00 | 0.00 | 0.00 | 34 | 1021.7 | |
| 20260905031555 | 80 | 79 | 1.7 | 2.6 | 0.00 | 0.00 | 0.00 | 33 | 1021.7 |
| 20260905030515 | 80 | 52 | 1.7 | 3.5 | 0.00 | 0.00 | 0.00 | 33 | 1021.6 |
| 20260905025516 | 80 | 52 | 1.7 | 3.5 | 0.00 | 0.00 | 0.00 | 32 | 1021.7 |
| 20260905024516 | 80 | 66 | 2.6 | 4.3 | 0.00 | 0.00 | 0.00 | 31 | 1021.6 |
| 20260905023516 | 80 | 56 | 2.6 | 5.2 | 0.00 | 0.00 | 0.00 | 31 | 1021.7 |
| 20260905022516 | 81 | 71 | 2.6 | 6.1 | 0.00 | 0.00 | 0.00 | 30 | 1021.8 |
| 20260905021516 | 81 | 77 | 3.5 | 6.1 | 0.00 | 0.00 | 0.00 | 30 | 1021.8 |
| 20260905020516 | 81 | 69 | 2.6 | 5.2 | 0.00 | 0.00 | 0.00 | 30 | 1021.8 |
| 20260905015516 | 81 | 56 | 2.6 | 5.2 | 0.00 | 0.00 | 0.00 | 30 | 1021.9 |
| 20260905014516 | 80 | 45 | 1.7 | 2.6 | 0.00 | 0.00 | 0.00 | 31 | 1021.8 |
| 20260905013516 | 81 | 47 | 0.0 | 0.9 | 0.00 | 0.00 | 0.00 | 30 | 1021.9 |
| 20260905012516 | 81 | 0.0 | 0.0 | 0.00 | 0.00 | 0.00 | 29 | 1021.8 | |
| 20260905011556 | 81 | 0.0 | 0.9 | 0.00 | 0.00 | 0.00 | 28 | 1021.9 | |
| 20260905010516 | 82 | 47 | 0.0 | 2.6 | 0.00 | 0.00 | 0.00 | 27 | 1022.0 |
| 20260905005516 | 83 | 70 | 1.7 | 4.3 | 0.00 | 0.00 | 0.00 | 27 | 1022.0 |